STARLINK-11538 [DTC] (62554 NORAD) Tracking and Keplerian Element Data

This shows tracking and keplerian element data for the satellite.

Feedback or suggestion? Click here.




ElementValue
Catalog62554
NameSTARLINK-11538 [DTC]
Epoch Orbit487
Epoch Day35.00908671
Epoch Year2025
RAAN27.2058
Inclination42.9997
Eccentricity6.3E-05
Argument of Perigee292.475
Mean Anonmoly67.6053
Mean Motion15.7786906
Decay Rate0.00011224
L11 62554U 25006A 25035.00908671 .00011224 00000+0 67238-4 0 9990
L22 62554 42.9997 27.2058 0000630 292.4750 67.6053 15.77869060 4871



Live tracking and technical data element details for STARLINK-11538 [DTC] (NORAD 62554). STARLINK-11538 [DTC] can be tracked NOW for your location showing map with azimuth and elevation plus other details from your city location.







IsCatalogInMostPopularTable: catalog: 62554, numindb: 16
Update: records affected: 1



GetName: 62554 STARLINK-11538 [DTC]

Hit Count: updated at: Mon, 19 May 2025 03:15:25 GMT